Starlink 31967

operational
NORAD ID: 60021 Int'l Des: 2024-111 Owner: SPXS Country: US Constellation: starlink
LEOCIRCULAR

About Starlink 31967

Description loading...

Live Position

Loading 3D Globe...

Upcoming Passes

Altitude History

Altitude vs Time

uPlot chart will show altitude changes over time

Two-Line Element Set

1 60021U 24111F 26035.81099569 .00001527 00000-0 63655-4 0 9995
2 60021 53.1587 228.0559 0001366 93.3338 266.7819 15.30202347 94016
Epoch: Feb 4, 2026 • Age: 16 hours

Current Status

Altitude 475.2 km
Velocity 7.63 km/s
Sub-Earth Point 12.48°N, 69.23°W
Launch Date Jun 8, 2024
Age 1.6 years
Type internet

Technical Details

Classification Payload
Mass 730.00 kg
Dry Mass 700.00 kg
Total Mass 730.00 kg
Length 0.30 m
Diameter 4.10 m
Span 29.00 m
Shape Box + pan
Manufacturer SPXS
Bus Type Starlink V2M
Phase Status In Orbit
Owner/State SPXS/US

Large Constellations

Loading constellations...